QPF
0.00 0.00 0.00 0.00 0.00 0.00 0.00 0.00 0.00 0.00 0.00 0.00 0.00 0.00 0.00 0.00 0.00 0.00 0.00 0.00 0.00 0.00 0.00 0.00 0.00 0.00 0.00 0.00 0.00 0.00 0.00 0.00 0.00 0.00 0.00 0.00 0.00 0.00 0.00 0.00 0.00 0.00 0.00 0.00 0.00 0.01 0.01
0.00 0.00 0.00 0.00 0.00 0.00 0.00 0.00 0.00 0.00 0.00 0.00 0.00 0.00 0.00 0.00 0.00 0.00 0.00 0.00 0.00 0.00 0.00 0.00 0.00 0.00 0.00 0.00 0.00 0.00 0.00 0.00 0.00 0.00 0.00 0.00 0.00 0.00 0.00 0.00 0.00 0.00 0.00 0.00 0.00 0.01 0.01
0.00 0.00 0.00 0.00 0.00 0.00 0.00 0.00 0.00 0.00 0.00 0.00 0.00 0.00 0.00 0.00 0.00 0.00 0.00 0.00 0.00 0.00 0.00 0.00 0.00 0.00 0.00 0.00 0.00 0.00 0.00 0.00 0.00 0.00 0.00 0.00 0.00 0.00 0.00 0.00 0.00 0.00 0.00 0.00 0.00 0.00 0.00
0.00 0.00 0.00 0.00 0.00 0.00 0.00 0.00 0.00 0.00 0.00 0.00 0.00 0.00 0.00 0.00 0.00 0.00 0.00 0.00 0.00 0.00 0.00 0.00 0.00 0.00 0.00 0.00 0.00 0.00 0.00 0.00 0.00 0.00 0.00 0.00 0.00 0.00 0.00 0.00 0.00 0.00 0.00 0.00 0.00 0.00 0.00
0.00 0.00 0.00 0.00 0.00 0.00 0.00 0.00 0.00 0.00 0.00 0.00 0.00 0.00 0.00 0.00 0.00 0.00 0.00 0.00 0.00 0.00 0.00 0.00 0.00 0.00 0.00 0.00 0.00 0.00 0.00 0.00 0.00 0.00 0.00 0.00 0.00 0.00 0.00 0.00 0.00 0.00 0.00 0.00 0.00 0.00 0.00
0.00 0.00 0.00 0.00 0.00 0.00 0.00 0.00 0.00 0.00 0.00 0.00 0.00 0.00 0.00 0.00 0.00 0.00 0.00 0.00 0.00 0.00 0.00 0.00 0.00 0.00 0.00 0.00 0.00 0.00 0.00 0.00 0.00 0.00 0.00 0.00 0.00 0.00 0.00 0.00 0.00 0.00 0.00 0.00 0.00 0.00 0.00
0.00 0.00 0.00 0.00 0.00 0.00 0.00 0.00 0.00 0.00 0.00 0.00 0.00 0.00 0.00 0.00 0.00 0.00 0.00 0.00 0.00 0.00 0.00 0.00 0.00 0.00 0.00 0.00 0.00 0.00 0.00 0.00 0.00 0.00 0.00 0.01 0.00 0.00 0.00 0.00 0.00 0.00 0.00 0.00 0.00 0.00 0.00
0.00 0.00 0.00 0.00 0.00 0.00 0.00 0.00 0.00 0.00 0.00 0.00 0.00 0.00 0.00 0.00 0.00 0.00 0.00 0.00 0.00 0.00 0.00 0.00 0.00 0.00 0.00 0.00 0.00 0.00 0.00 0.00 0.00 0.00 0.00 0.00 0.00 0.00 0.00 0.00 0.00 0.00 0.00 0.00 0.00 0.00 0.00
0.00 0.00 0.00 0.00 0.00 0.00 0.00 0.00 0.00 0.00 0.00 0.00 0.00 0.00 0.00 0.00 0.00 0.00 0.00 0.00 0.00 0.00 0.00 0.00 0.00 0.00 0.00 0.00 0.00 0.00 0.00 0.00 0.00 0.00 0.00 0.00 0.00 0.00 0.00 0.00 0.00 0.00 0.00 0.00 0.00 0.00 0.00
0.00 0.00 0.00 0.00 0.00 0.00 0.00 0.00 0.00 0.00 0.00 0.00 0.00 0.00 0.00 0.00 0.00 0.00 0.00 0.00 0.00 0.00 0.00 0.00 0.00 0.00 0.00 0.00 0.00 0.00 0.00 0.00 0.00 0.00 0.00 0.00 0.00 0.00 0.00 0.00 0.00 0.00 0.00 0.00 0.00 0.00 0.00
0.00 0.00 0.00 0.00 0.00 0.00 0.00 0.00 0.00 0.00 0.00 0.00 0.00 0.00 0.00 0.00 0.00 0.00 0.00 0.00 0.00 0.00 0.00 0.00 0.00 0.00 0.00 0.00 0.00 0.00 0.00 0.00 0.00 0.00 0.00 0.00 0.00 0.00 0.00 0.00 0.00 0.00 0.00 0.00 0.00 0.00 0.00
0.01 0.01 0.00 0.00 0.00 0.00 0.00 0.00 0.00 0.00 0.00 0.00 0.00 0.00 0.00 0.00 0.00 0.00 0.00 0.00 0.01 0.01 0.00 0.00 0.00 0.00 0.00 0.00 0.00 0.00 0.00 0.00 0.00 0.00 0.00 0.00 0.00 0.00 0.00 0.00 0.00 0.00 0.00 0.00 0.00 0.00 0.00
0.01 0.01 0.01 0.01 0.00 0.01 0.01 0.00 0.00 0.00 0.00 0.01 0.01 0.00 0.00 0.00 0.00 0.00 0.00 0.02 0.01 0.00 0.00 0.00 0.00 0.00 0.00 0.00 0.00 0.00 0.00 0.00 0.00 0.00 0.00 0.00 0.00 0.00 0.00 0.00 0.00 0.00 0.00 0.00 0.00 0.00 0.00
0.01 0.01 0.01 0.02 0.01 0.01 0.01 0.00 0.00 0.00 0.00 0.01 0.03 0.00 0.00 0.00 0.00 0.00 0.01 0.03 0.00 0.00 0.00 0.00 0.00 0.00 0.00 0.00 0.00 0.00 0.00 0.00 0.00 0.00 0.00 0.00 0.00 0.00 0.00 0.00 0.00 0.00 0.00 0.00 0.01 0.02 0.00
0.02 0.01 0.01 0.02 0.02 0.02 0.01 0.01 0.00 0.00 0.00 0.01 0.07 0.02 0.00 0.00 0.00 0.00 0.02 0.02 0.00 0.00 0.00 0.00 0.00 0.00 0.00 0.00 0.00 0.00 0.00 0.00 0.00 0.00 0.00 0.00 0.00 0.00 0.00 0.00 0.00 0.00 0.00 0.00 0.00 0.01 0.00
0.02 0.02 0.02 0.02 0.02 0.02 0.02 0.01 0.01 0.00 0.00 0.02 0.05 0.02 0.00 0.00 0.00 0.00 0.02 0.00 0.00 0.00 0.00 0.00 0.00 0.00 0.00 0.00 0.00 0.00 0.00 0.00 0.00 0.00 0.00 0.00 0.04 0.02 0.00 0.00 0.00 0.00 0.00 0.00 0.00 0.00 0.00
0.02 0.02 0.03 0.02 0.02 0.03 0.03 0.02 0.01 0.00 0.00 0.02 0.03 0.02 0.00 0.00 0.00 0.01 0.01 0.00 0.00 0.00 0.00 0.00 0.00 0.00 0.00 0.00 0.00 0.00 0.00 0.00 0.00 0.00 0.00 0.00 0.04 0.07 0.00 0.00 0.00 0.00 0.00 0.00 0.00 0.00 0.00
0.01 0.02 0.04 0.04 0.03 0.02 0.02 0.03 0.02 0.01 0.01 0.04 0.04 0.01 0.00 0.00 0.00 0.00 0.00 0.00 0.00 0.00 0.00 0.00 0.00 0.00 0.00 0.00 0.00 0.00 0.00 0.00 0.00 0.00 0.00 0.00 0.00 0.01 0.00 0.00 0.00 0.00 0.00 0.01 0.00 0.00 0.00
0.01 0.02 0.02 0.05 0.05 0.03 0.01 0.02 0.04 0.03 0.01 0.03 0.04 0.04 0.03 0.00 0.00 0.00 0.00 0.00 0.00 0.00 0.00 0.00 0.00 0.00 0.00 0.00 0.00 0.00 0.00 0.00 0.00 0.00 0.00 0.00 0.00 0.00 0.00 0.00 0.01 0.00 0.00 0.00 0.00 0.00 0.00
0.01 0.02 0.02 0.02 0.05 0.03 0.02 0.01 0.03 0.04 0.01 0.04 0.03 0.04 0.10 0.04 0.00 0.00 0.00 0.00 0.00 0.00 0.00 0.00 0.00 0.00 0.00 0.00 0.00 0.00 0.00 0.00 0.00 0.00 0.00 0.00 0.00 0.00 0.00 0.00 0.00 0.00 0.00 0.00 0.00 0.00 0.00
0.01 0.01 0.02 0.02 0.03 0.02 0.03 0.02 0.02 0.04 0.02 0.13 0.06 0.01 0.02 0.01 0.00 0.00 0.00 0.00 0.00 0.00 0.00 0.00 0.00 0.00 0.00 0.00 0.00 0.00 0.00 0.00 0.00 0.00 0.00 0.00 0.00 0.00 0.00 0.00 0.00 0.00 0.00 0.00 0.00 0.00 0.00
0.01 0.02 0.02 0.02 0.02 0.02 0.03 0.04 0.02 0.05 0.06 0.20 0.06 0.00 0.01 0.01 0.00 0.00 0.00 0.00 0.00 0.00 0.00 0.00 0.00 0.00 0.00 0.00 0.00 0.00 0.00 0.00 0.00 0.00 0.00 0.00 0.00 0.00 0.00 0.00 0.00 0.00 0.00 0.00 0.00 0.00 0.00
0.02 0.05 0.02 0.04 0.04 0.03 0.02 0.04 0.02 0.05 0.14 0.23 0.03 0.00 0.03 0.02 0.00 0.00 0.00 0.00 0.00 0.00 0.00 0.00 0.00 0.00 0.00 0.00 0.00 0.00 0.00 0.00 0.00 0.00 0.00 0.00 0.00 0.00 0.00 0.00 0.00 0.00 0.00 0.00 0.00 0.00 0.00
0.02 0.08 0.06 0.10 0.07 0.05 0.02 0.03 0.02 0.05 0.09 0.07 0.00 0.02 0.07 0.04 0.00 0.00 0.00 0.00 0.00 0.00 0.00 0.00 0.00 0.00 0.00 0.00 0.00 0.00 0.00 0.00 0.00 0.01 0.00 0.00 0.00 0.00 0.00 0.00 0.00 0.00 0.00 0.00 0.00 0.00 0.00
0.02 0.12 0.08 0.12 0.10 0.08 0.02 0.03 0.01 0.01 0.05 0.02 0.00 0.04 0.10 0.06 0.01 0.00 0.00 0.00 0.00 0.00 0.00 0.00 0.00 0.00 0.00 0.00 0.01 0.00 0.00 0.00 0.00 0.00 0.00 0.01 0.00 0.00 0.00 0.00 0.00 0.00 0.00 0.00 0.00 0.00 0.00
0.02 0.10 0.08 0.11 0.10 0.12 0.03 0.03 0.00 0.00 0.03 0.02 0.01 0.06 0.13 0.11 0.02 0.00 0.00 0.00 0.00 0.01 0.01 0.03 0.02 0.01 0.00 0.00 0.00 0.00 0.00 0.00 0.00 0.00 0.00 0.00 0.00 0.00 0.00 0.00 0.00 0.00 0.00 0.00 0.00 0.00 0.00
0.02 0.06 0.05 0.07 0.07 0.09 0.04 0.02 0.00 0.00 0.01 0.02 0.03 0.06 0.17 0.15 0.01 0.00 0.00 0.00 0.01 0.01 0.01 0.04 0.06 0.03 0.00 0.02 0.00 0.00 0.00 0.00 0.00 0.00 0.00 0.00 0.00 0.00 0.00 0.00 0.00 0.00 0.00 0.00 0.00 0.00 0.00
0.02 0.02 0.01 0.01 0.02 0.02 0.01 0.00 0.00 0.00 0.00 0.01 0.03 0.09 0.25 0.11 0.01 0.00 0.00 0.00 0.00 0.00 0.00 0.00 0.06 0.01 0.00 0.01 0.00 0.00 0.00 0.00 0.00 0.00 0.00 0.00 0.00 0.00 0.00 0.00 0.00 0.00 0.00 0.00 0.00 0.00 0.00
0.01 0.01 0.00 0.00 0.00 0.00 0.00 0.00 0.00 0.00 0.00 0.01 0.02 0.04 0.21 0.30 0.07 0.02 0.00 0.00 0.00 0.00 0.00 0.00 0.01 0.00 0.00 0.00 0.00 0.00 0.00 0.00 0.00 0.00 0.00 0.00 0.00 0.00 0.00 0.00 0.00 0.00 0.00 0.00 0.00 0.00 0.00
MSLP
1019.50 1019.51 1019.38 1019.33 1019.28 1019.17 1019.03 1019.16 1019.40 1019.53 1019.68 1019.79 1019.88 1019.90 1019.92 1019.77 1019.63 1019.34 1019.06 1018.83 1018.54 1018.21 1017.92 1017.62 1017.44 1017.23 1016.54 1015.33 1011.77 1009.29 1009.67 1010.16 1010.41 1010.59 1010.58 1010.54 1010.30 1009.88 1009.73 1009.24 1008.93 1008.67 1008.11 1007.86 1008.43 1008.94 1011.47
1019.02 1019.13 1019.05 1018.97 1018.91 1018.81 1018.72 1018.65 1018.81 1019.13 1019.28 1019.43 1019.45 1019.53 1019.61 1019.53 1019.42 1019.12 1018.99 1018.68 1018.36 1018.06 1017.85 1017.52 1017.58 1017.46 1016.82 1013.85 1009.06 1009.24 1009.53 1010.32 1010.35 1010.42 1010.10 1010.07 1009.70 1009.05 1009.04 1009.02 1008.92 1007.83 1007.59 1007.64 1007.83 1009.11 1010.00
1018.59 1018.47 1018.54 1018.48 1018.53 1018.47 1018.36 1018.37 1018.26 1018.57 1018.86 1019.11 1019.11 1019.09 1019.18 1019.20 1019.10 1018.87 1018.81 1018.53 1018.11 1017.95 1017.67 1017.49 1017.71 1017.51 1015.93 1011.74 1008.92 1009.28 1009.23 1009.68 1009.61 1009.63 1009.74 1009.14 1008.98 1008.95 1008.85 1009.02 1008.43 1007.47 1007.69 1007.72 1007.77 1008.51 1009.52
1017.92 1017.96 1018.03 1018.02 1018.05 1018.11 1017.96 1017.94 1017.95 1018.06 1018.31 1018.68 1018.78 1018.76 1018.79 1018.78 1018.80 1018.70 1018.58 1018.30 1017.87 1017.64 1017.41 1017.38 1017.64 1017.41 1014.24 1009.45 1008.75 1008.88 1009.00 1009.08 1008.94 1009.09 1009.05 1008.78 1008.64 1008.79 1009.03 1009.21 1008.93 1008.27 1008.24 1008.33 1007.91 1008.27 1009.69
1017.30 1017.34 1017.46 1017.51 1017.54 1017.67 1017.62 1017.54 1017.49 1017.61 1017.86 1018.17 1018.31 1018.44 1018.48 1018.48 1018.49 1018.39 1018.25 1017.92 1017.66 1017.34 1017.21 1017.28 1017.51 1016.71 1012.66 1009.01 1008.64 1007.99 1008.25 1008.40 1008.59 1008.68 1008.80 1008.90 1009.11 1009.39 1009.53 1009.91 1009.98 1009.17 1009.07 1008.57 1008.28 1008.15 1009.14
1016.48 1016.59 1016.82 1016.95 1017.02 1017.11 1017.12 1017.13 1017.07 1017.15 1017.43 1017.72 1017.92 1018.10 1018.18 1018.19 1018.29 1018.15 1017.96 1017.57 1017.22 1017.12 1016.58 1016.78 1016.42 1015.65 1011.60 1008.70 1007.68 1007.47 1007.70 1008.31 1008.44 1008.91 1009.36 1009.60 1009.91 1010.08 1010.25 1010.64 1010.61 1009.85 1009.21 1008.93 1008.70 1008.61 1008.78
1015.86 1015.78 1015.94 1016.20 1016.46 1016.44 1016.55 1016.64 1016.69 1016.76 1016.95 1017.25 1017.49 1017.76 1017.85 1017.98 1018.02 1018.02 1017.96 1017.09 1017.34 1016.63 1015.95 1014.33 1013.03 1011.71 1009.12 1008.04 1006.97 1007.14 1007.49 1008.16 1008.53 1009.28 1010.25 1010.61 1011.08 1010.79 1010.45 1010.42 1009.86 1009.66 1009.49 1009.26 1008.51 1007.94 1008.75
1015.03 1015.16 1015.15 1015.31 1015.66 1015.92 1016.01 1016.15 1016.20 1016.39 1016.52 1016.74 1016.98 1017.42 1017.66 1017.79 1017.90 1018.00 1018.24 1017.22 1014.52 1014.60 1013.66 1012.05 1011.23 1010.55 1009.24 1008.24 1007.52 1007.07 1007.48 1008.48 1008.87 1010.13 1010.39 1010.93 1011.29 1010.71 1010.14 1010.13 1010.50 1010.09 1009.55 1009.16 1008.47 1007.86 1008.41
1013.99 1014.37 1014.60 1014.67 1014.77 1015.17 1015.50 1015.67 1015.78 1015.92 1016.06 1016.35 1016.62 1017.00 1017.36 1017.60 1017.83 1017.98 1017.40 1015.44 1013.35 1013.89 1013.42 1010.25 1009.14 1008.92 1008.41 1007.85 1007.39 1006.99 1007.41 1007.99 1008.98 1009.82 1010.79 1011.43 1011.03 1010.73 1010.17 1010.41 1010.19 1009.88 1009.97 1009.02 1008.55 1008.15 1008.41
1013.07 1013.37 1013.83 1014.09 1014.29 1014.42 1014.80 1015.13 1015.35 1015.50 1015.65 1015.82 1016.31 1016.62 1017.20 1017.67 1018.25 1016.84 1015.96 1013.43 1013.43 1014.53 1013.32 1009.39 1007.84 1007.33 1007.26 1007.35 1007.17 1006.55 1006.87 1007.58 1008.67 1009.96 1010.71 1011.01 1010.41 1010.49 1010.34 1010.03 1009.92 1009.62 1009.68 1009.00 1009.02 1009.36 1009.80
1012.17 1012.44 1012.90 1013.32 1013.74 1013.88 1014.08 1014.50 1014.87 1015.18 1015.28 1015.40 1015.80 1016.23 1016.92 1017.26 1017.33 1016.29 1014.25 1013.50 1013.07 1013.96 1012.11 1007.34 1006.58 1005.62 1006.25 1006.97 1006.47 1006.30 1006.34 1006.87 1008.03 1009.44 1010.58 1010.61 1010.48 1010.65 1010.33 1009.63 1009.42 1009.12 1009.14 1009.21 1009.68 1010.51 1010.93
1010.73 1011.50 1011.89 1012.28 1012.91 1013.36 1013.39 1013.81 1014.46 1014.66 1014.99 1015.12 1015.37 1015.80 1016.69 1017.49 1017.55 1015.50 1014.14 1013.98 1013.32 1013.55 1010.41 1006.79 1005.90 1005.94 1006.57 1006.63 1006.61 1006.40 1006.23 1006.62 1007.22 1008.77 1009.50 1009.64 1010.14 1010.12 1009.68 1009.31 1009.17 1008.96 1009.27 1009.66 1010.47 1011.63 1012.09
1009.18 1010.10 1010.98 1011.34 1011.88 1012.34 1012.70 1013.01 1013.69 1014.10 1014.65 1014.75 1015.09 1015.49 1016.13 1015.85 1015.73 1014.77 1014.36 1014.65 1013.99 1011.98 1008.05 1006.41 1006.00 1005.92 1006.48 1006.69 1006.70 1006.63 1006.78 1007.48 1008.31 1008.95 1009.92 1010.04 1010.31 1009.71 1009.67 1009.77 1009.12 1009.34 1009.96 1011.40 1012.54 1013.25 1013.05
1008.20 1008.77 1009.62 1010.46 1010.85 1011.27 1011.81 1012.16 1012.81 1013.59 1013.98 1014.51 1014.93 1015.26 1015.55 1015.23 1014.97 1015.47 1015.06 1014.87 1012.78 1009.61 1007.52 1005.65 1005.69 1006.04 1006.57 1006.58 1006.77 1006.93 1007.26 1008.00 1008.29 1008.84 1009.68 1010.22 1011.00 1010.90 1010.13 1010.43 1009.54 1009.38 1010.37 1011.73 1013.53 1014.50 1013.79
1007.10 1007.79 1008.45 1009.40 1010.10 1010.23 1010.79 1011.42 1011.95 1012.74 1013.45 1014.25 1014.82 1015.13 1015.28 1014.80 1015.16 1016.07 1015.63 1013.66 1010.76 1008.36 1006.51 1005.93 1005.42 1005.82 1006.31 1006.44 1006.64 1007.09 1007.38 1007.80 1008.05 1008.34 1009.85 1010.63 1011.00 1010.45 1010.21 1009.98 1009.26 1009.37 1009.72 1010.49 1012.81 1014.57 1014.49
1005.37 1006.77 1007.73 1008.30 1009.09 1009.60 1009.91 1010.59 1011.15 1011.94 1012.79 1013.75 1014.36 1014.42 1014.12 1014.19 1014.78 1015.72 1014.86 1011.84 1009.85 1007.29 1005.78 1005.73 1005.43 1005.30 1005.82 1006.27 1006.60 1006.84 1007.21 1006.97 1007.35 1007.65 1008.64 1010.66 1011.65 1011.35 1010.81 1010.51 1008.79 1008.90 1009.58 1010.45 1011.90 1014.04 1014.19
1004.18 1005.29 1006.50 1007.47 1008.28 1008.92 1009.13 1009.78 1010.25 1011.16 1012.22 1013.12 1013.83 1013.27 1012.28 1013.54 1014.57 1014.87 1012.45 1010.97 1009.55 1007.00 1006.34 1005.56 1004.60 1004.89 1005.25 1005.81 1006.13 1006.58 1006.90 1006.55 1006.56 1007.85 1008.61 1010.52 1011.18 1011.72 1011.49 1010.32 1009.00 1009.05 1009.32 1010.25 1011.50 1013.04 1013.86
1003.00 1004.13 1005.29 1006.37 1007.24 1008.00 1008.46 1008.96 1009.56 1010.41 1011.55 1012.54 1012.21 1011.84 1011.09 1012.40 1013.83 1012.83 1011.32 1010.55 1009.04 1006.85 1006.24 1005.51 1004.52 1004.41 1004.57 1005.07 1005.63 1006.17 1006.45 1006.72 1005.85 1006.89 1008.47 1009.60 1010.86 1011.56 1010.71 1008.93 1008.19 1008.34 1009.04 1010.14 1011.79 1013.10 1013.52
1001.79 1002.86 1004.09 1005.17 1006.12 1007.04 1007.53 1008.09 1008.90 1009.54 1010.37 1011.15 1010.69 1010.77 1011.39 1010.38 1011.14 1010.66 1010.61 1010.10 1008.80 1007.09 1006.08 1005.20 1004.32 1004.21 1004.15 1004.58 1005.56 1005.68 1006.29 1006.60 1006.33 1006.89 1007.94 1008.75 1009.80 1010.86 1010.47 1009.54 1008.57 1008.32 1008.54 1009.30 1010.52 1012.03 1012.90
1000.61 1001.73 1002.93 1003.92 1005.10 1005.87 1006.45 1007.18 1008.07 1008.68 1009.58 1009.97 1009.84 1009.65 1010.46 1010.07 1008.45 1009.07 1009.35 1008.58 1007.95 1006.60 1006.04 1005.14 1004.39 1004.11 1004.31 1004.39 1004.77 1005.43 1006.52 1006.98 1006.90 1007.53 1007.96 1008.22 1009.35 1010.21 1010.45 1009.68 1008.79 1008.64 1008.60 1009.03 1010.03 1011.79 1012.29
999.48 1000.62 1001.65 1002.89 1003.97 1004.96 1005.53 1006.39 1007.26 1007.90 1008.71 1009.17 1008.33 1006.99 1006.46 1006.89 1007.61 1007.69 1008.07 1007.65 1007.13 1006.23 1005.46 1004.68 1004.20 1004.06 1004.33 1004.67 1005.00 1005.39 1006.45 1007.45 1007.84 1008.15 1008.34 1008.71 1009.77 1010.20 1010.20 1009.83 1009.41 1008.94 1009.05 1009.21 1009.68 1010.22 1011.07
998.56 999.69 1000.68 1001.92 1002.94 1003.70 1004.31 1005.57 1006.41 1007.12 1008.21 1008.50 1006.59 1005.33 1005.35 1005.27 1006.54 1007.11 1006.73 1005.98 1005.80 1005.24 1004.77 1004.25 1004.40 1003.87 1004.05 1004.63 1005.06 1005.39 1006.14 1006.92 1007.68 1008.62 1008.70 1009.11 1010.20 1010.82 1011.26 1010.72 1010.20 1009.87 1009.27 1009.07 1009.16 1009.28 1009.62
997.63 998.85 999.91 1000.86 1001.72 1002.57 1003.35 1004.27 1005.64 1006.15 1007.06 1006.21 1006.28 1004.69 1004.17 1005.09 1005.48 1006.06 1004.28 1004.44 1004.67 1004.68 1003.98 1003.57 1003.53 1003.86 1004.15 1004.58 1004.97 1005.34 1005.54 1006.47 1007.20 1008.21 1009.03 1009.77 1010.95 1012.29 1012.97 1012.49 1011.53 1010.82 1009.32 1008.96 1008.93 1008.99 1009.32
996.87 997.96 998.97 999.87 1000.62 1001.38 1002.38 1003.44 1004.54 1005.05 1005.65 1005.42 1005.56 1005.16 1004.09 1004.18 1004.28 1003.60 1004.25 1004.43 1004.11 1003.90 1004.12 1003.30 1003.27 1003.64 1004.36 1004.38 1005.35 1006.06 1006.78 1007.54 1007.82 1008.64 1008.96 1010.17 1011.88 1013.34 1014.72 1014.38 1012.98 1010.41 1008.91 1008.50 1008.86 1009.38 1009.48
996.35 997.37 998.38 998.98 999.66 1000.40 1001.38 1002.43 1003.56 1004.19 1005.05 1005.59 1005.17 1005.66 1004.83 1004.10 1003.47 1003.62 1003.32 1003.01 1003.89 1003.70 1004.23 1003.58 1003.40 1003.21 1004.03 1005.28 1007.62 1008.91 1009.47 1009.59 1009.44 1009.77 1009.85 1010.39 1012.46 1014.73 1015.70 1015.27 1013.12 1010.50 1009.36 1008.85 1008.88 1010.35 1010.16
996.18 996.97 997.53 997.82 998.71 999.26 1000.39 1001.38 1002.47 1003.46 1004.56 1005.80 1005.41 1006.24 1005.38 1004.09 1002.26 1002.32 1002.58 1002.70 1003.00 1003.54 1004.56 1004.23 1003.93 1004.15 1004.23 1006.68 1008.62 1010.27 1010.66 1010.34 1010.60 1010.77 1010.89 1011.60 1012.67 1014.79 1016.27 1015.84 1013.95 1011.08 1009.59 1009.01 1009.03 1010.62 1010.75
995.80 996.74 996.93 997.57 998.45 999.25 1000.07 1001.16 1002.25 1003.15 1004.41 1005.52 1005.67 1006.50 1006.43 1004.25 1001.81 1001.34 1000.87 1000.54 1001.72 1003.11 1004.23 1004.72 1005.84 1006.09 1005.32 1008.01 1010.00 1010.80 1010.96 1010.41 1011.11 1011.49 1012.28 1013.35 1014.26 1015.49 1015.90 1015.29 1013.13 1010.65 1009.59 1009.44 1010.22 1011.71 1011.08
995.86 996.54 997.04 997.68 998.53 999.33 1000.27 1001.36 1002.33 1003.33 1004.30 1005.30 1005.61 1006.47 1006.72 1004.59 1001.86 1001.08 1000.56 1000.31 1000.88 1001.88 1003.22 1004.89 1006.75 1006.73 1006.85 1008.24 1009.82 1010.68 1011.81 1011.05 1010.94 1011.18 1011.75 1012.77 1014.07 1015.06 1015.25 1014.56 1012.62 1010.06 1009.89 1010.31 1010.91 1011.18 1011.46
995.90 996.53 997.18 997.93 998.67 999.42 1000.39 1001.32 1002.27 1003.17 1003.81 1004.74 1005.39 1005.94 1006.37 1006.27 1003.83 1002.33 1000.30 999.64 998.90 999.97 1001.57 1003.68 1004.46 1005.37 1005.41 1006.51 1008.71 1010.41 1011.77 1011.80 1011.57 1011.63 1010.76 1011.33 1011.43 1012.37 1012.53 1011.95 1010.73 1009.90 1009.99 1010.32 1010.74 1011.73 1012.24
Thickness
5610 5612 5616 5619 5622 5625 5628 5630 5630 5632 5634 5634 5634 5635 5637 5638 5640 5641 5644 5645 5645 5646 5645 5642 5639 5636 5636 5637 5654 5689 5685 5678 5674 5671 5665 5661 5658 5662 5654 5667 5673 5673 5686 5698 5692 5686 5663
5602 5604 5608 5612 5615 5619 5622 5625 5626 5627 5628 5629 5630 5632 5632 5634 5636 5638 5639 5641 5642 5643 5641 5639 5634 5631 5628 5634 5688 5686 5683 5674 5671 5668 5668 5666 5664 5673 5667 5667 5667 5688 5691 5694 5699 5680 5676
5592 5596 5599 5603 5608 5611 5615 5618 5622 5622 5622 5623 5626 5628 5629 5631 5633 5634 5634 5636 5639 5639 5638 5636 5629 5627 5632 5650 5687 5684 5682 5675 5676 5674 5665 5674 5675 5669 5669 5660 5678 5688 5679 5687 5697 5687 5674
5584 5587 5591 5595 5599 5603 5607 5612 5616 5618 5618 5618 5621 5623 5625 5628 5629 5630 5632 5633 5636 5637 5636 5633 5627 5624 5637 5684 5688 5684 5681 5676 5681 5679 5675 5679 5678 5673 5669 5672 5669 5673 5674 5655 5686 5686 5677
5576 5579 5582 5586 5590 5594 5599 5605 5609 5612 5613 5614 5616 5618 5620 5622 5624 5626 5629 5631 5633 5635 5634 5631 5625 5625 5644 5685 5679 5689 5685 5675 5677 5677 5677 5677 5672 5660 5663 5650 5640 5659 5640 5662 5674 5689 5679
5567 5571 5574 5578 5583 5586 5591 5596 5602 5607 5609 5610 5611 5612 5615 5618 5619 5622 5624 5628 5631 5633 5636 5631 5630 5626 5656 5671 5686 5689 5689 5679 5672 5667 5660 5657 5651 5641 5641 5633 5616 5641 5654 5662 5657 5675 5680
5555 5562 5566 5570 5574 5580 5584 5588 5593 5598 5603 5605 5607 5608 5610 5612 5614 5616 5619 5627 5629 5635 5634 5646 5652 5655 5677 5686 5697 5686 5683 5674 5673 5660 5636 5641 5626 5625 5643 5645 5659 5657 5657 5656 5667 5691 5674
5546 5551 5557 5562 5567 5572 5577 5580 5585 5590 5594 5599 5602 5601 5603 5606 5608 5609 5610 5618 5643 5640 5639 5659 5660 5661 5673 5680 5670 5678 5682 5657 5657 5632 5643 5634 5618 5642 5659 5658 5650 5653 5655 5653 5675 5691 5685
5537 5541 5545 5551 5558 5562 5566 5572 5576 5581 5587 5591 5595 5596 5597 5599 5601 5603 5609 5625 5645 5642 5632 5663 5672 5664 5668 5676 5667 5669 5673 5663 5650 5645 5631 5625 5635 5650 5655 5647 5647 5649 5645 5657 5672 5689 5690
5526 5531 5536 5541 5546 5553 5557 5562 5567 5572 5578 5584 5587 5590 5590 5591 5591 5605 5612 5638 5639 5632 5614 5655 5666 5670 5673 5673 5660 5684 5680 5667 5656 5636 5638 5635 5649 5648 5648 5648 5653 5647 5659 5669 5674 5664 5644
5512 5520 5524 5531 5537 5544 5551 5555 5559 5564 5571 5577 5581 5583 5584 5585 5591 5602 5623 5630 5635 5626 5594 5669 5671 5693 5680 5663 5669 5670 5685 5672 5648 5643 5642 5633 5640 5638 5638 5653 5666 5656 5671 5672 5671 5659 5653
5501 5506 5513 5520 5525 5532 5542 5547 5550 5557 5561 5568 5575 5578 5578 5577 5577 5600 5614 5619 5624 5601 5599 5659 5674 5662 5657 5662 5664 5672 5671 5682 5677 5651 5655 5653 5657 5655 5655 5666 5668 5674 5671 5671 5662 5645 5624
5490 5494 5498 5508 5515 5523 5531 5539 5543 5549 5552 5559 5565 5570 5572 5579 5580 5596 5606 5604 5589 5585 5658 5657 5656 5662 5653 5653 5655 5658 5652 5646 5635 5630 5628 5648 5647 5659 5661 5650 5666 5667 5655 5614 5604 5599 5607
5472 5482 5486 5492 5502 5513 5521 5529 5535 5538 5546 5548 5554 5561 5566 5574 5579 5582 5590 5587 5586 5627 5643 5674 5663 5657 5644 5655 5651 5652 5644 5633 5648 5648 5636 5631 5618 5637 5657 5646 5654 5658 5649 5611 5593 5589 5607
5450 5462 5472 5478 5487 5500 5510 5518 5525 5529 5536 5538 5541 5551 5557 5566 5569 5568 5575 5582 5597 5636 5658 5656 5660 5644 5641 5652 5652 5645 5640 5636 5648 5655 5627 5626 5627 5650 5655 5653 5663 5652 5643 5655 5617 5608 5593
5425 5437 5450 5462 5472 5484 5496 5506 5516 5520 5524 5526 5534 5545 5559 5557 5561 5560 5571 5593 5612 5650 5660 5655 5639 5650 5636 5644 5643 5641 5640 5658 5655 5663 5654 5628 5615 5632 5641 5649 5666 5661 5666 5630 5623 5608 5607
5400 5409 5426 5441 5455 5467 5482 5493 5505 5510 5512 5516 5522 5540 5561 5549 5551 5553 5576 5593 5615 5647 5649 5647 5652 5648 5650 5644 5646 5643 5646 5661 5668 5653 5652 5633 5626 5620 5628 5635 5642 5648 5644 5650 5643 5621 5601
5379 5383 5396 5418 5435 5450 5466 5480 5490 5498 5502 5504 5523 5537 5555 5546 5541 5560 5578 5593 5618 5637 5644 5646 5659 5659 5653 5653 5648 5644 5645 5653 5678 5667 5649 5642 5624 5603 5629 5659 5672 5666 5654 5641 5598 5620 5612
5371 5368 5374 5392 5411 5430 5448 5466 5476 5487 5495 5502 5523 5535 5534 5552 5551 5565 5579 5588 5609 5623 5630 5643 5652 5660 5666 5654 5642 5651 5648 5659 5666 5663 5654 5653 5630 5603 5616 5640 5657 5654 5658 5656 5645 5619 5616
5369 5361 5359 5372 5387 5410 5431 5449 5462 5474 5484 5496 5511 5523 5526 5543 5579 5576 5576 5592 5600 5625 5627 5642 5649 5657 5654 5653 5661 5649 5639 5651 5660 5653 5648 5655 5642 5621 5599 5625 5646 5641 5650 5652 5640 5591 5609
5368 5363 5357 5360 5371 5390 5411 5428 5446 5461 5473 5482 5503 5539 5558 5560 5563 5575 5577 5591 5599 5605 5627 5642 5641 5646 5646 5642 5646 5647 5640 5640 5649 5643 5652 5643 5624 5638 5636 5641 5645 5645 5640 5641 5637 5631 5611
5366 5363 5362 5358 5361 5376 5396 5407 5427 5449 5456 5466 5511 5548 5560 5571 5570 5569 5576 5592 5601 5613 5624 5630 5631 5645 5649 5642 5642 5638 5645 5641 5639 5639 5640 5642 5619 5630 5623 5633 5629 5625 5636 5636 5638 5643 5642
5365 5361 5359 5359 5361 5369 5385 5401 5415 5431 5442 5469 5502 5538 5559 5561 5564 5563 5590 5604 5608 5618 5630 5642 5644 5642 5641 5647 5651 5654 5659 5653 5647 5633 5627 5625 5614 5593 5596 5602 5608 5589 5624 5628 5635 5640 5638
5363 5361 5359 5359 5361 5367 5378 5390 5408 5421 5440 5477 5505 5525 5545 5556 5566 5582 5589 5596 5607 5615 5615 5639 5644 5642 5645 5655 5651 5647 5643 5638 5640 5633 5634 5615 5608 5581 5572 5573 5564 5614 5643 5643 5634 5629 5629
5360 5358 5356 5359 5361 5367 5377 5389 5399 5416 5437 5466 5494 5510 5534 5522 5569 5573 5584 5600 5605 5618 5614 5632 5642 5650 5649 5643 5612 5605 5593 5607 5618 5622 5623 5620 5593 5572 5563 5561 5593 5617 5629 5632 5624 5610 5623
5356 5356 5358 5361 5362 5369 5376 5387 5398 5417 5440 5458 5480 5494 5519 5545 5569 5583 5586 5596 5596 5602 5599 5612 5627 5639 5645 5617 5593 5595 5579 5600 5595 5604 5608 5607 5599 5572 5558 5556 5553 5598 5626 5635 5632 5587 5617
5357 5356 5360 5363 5365 5369 5375 5384 5398 5417 5436 5452 5469 5484 5507 5543 5571 5581 5588 5602 5610 5599 5593 5601 5603 5608 5628 5577 5584 5580 5583 5613 5585 5583 5574 5560 5564 5555 5532 5537 5571 5614 5626 5630 5586 5581 5611
5355 5358 5361 5365 5369 5374 5378 5380 5396 5415 5432 5449 5471 5484 5503 5539 5568 5583 5597 5602 5606 5604 5592 5595 5584 5591 5601 5590 5584 5580 5568 5591 5593 5601 5584 5574 5560 5539 5548 5550 5565 5619 5619 5599 5597 5606 5604
5354 5359 5362 5366 5369 5373 5377 5384 5400 5420 5439 5460 5473 5488 5501 5518 5552 5568 5595 5611 5627 5624 5610 5600 5606 5604 5614 5608 5596 5582 5579 5568 5588 5572 5607 5581 5589 5576 5579 5575 5602 5616 5609 5609 5606 5596 5591